Location: Newark
(25.6108°S, 54.5803°W)
Time: 09:59:06
(UTC+00:00)

deb Explorer IX - Pass Details

Date: 30 October 2020
Orbit: 538 x 1104 km, 38.8° (Epoch: 23 November)

Event Time Altitude Azimuth Distance (km) Brightness Sun altitude
Rises 20:27:43 0° 270° (W) 3,493 ? 18.1°
Reaches altitude 10° 20:30:48 10° 258° (WSW) 2,450 ? 17.4°
Maximum altitude 20:35:41 28° 200° (SSW) 1,393 ? 16.3°
Drops below altitude 10° 20:39:59 10° 141° (SE) 2,129 ? 15.4°
Sets 20:42:29 0° 128° (SE) 2,959 ? 14.8°
